Location: Kershaw
(34.5481°N, 80.5823°W)
Time: 15:58:02
(UTC+00:00)

Vanguard 1 Rocket - Pass Details

Date: 07 October 2022
Orbit: 650 x 4225 km, 34.3° (Epoch: 08 December)

Event Time Altitude Azimuth Distance (km) Brightness Sun altitude
Rises 02:50:43 0° 272° (W) 7,870 12.7 -46.6°
Reaches altitude 10° 02:56:46 10° 273° (W) 6,407 12.1 -47.6°
Enters shadow 03:11:30 59° 272° (W) 2,598 9.5 -50.0°
Maximum altitude 03:15:00 88° 187° (S) 2,040 - -50.6°
Drops below altitude 10° 03:23:49 10° 98° (E) 3,357 - -51.9°
Sets 03:26:00 0° 98° (E) 4,049 - -52.2°
